DECAYED

STARLINK-1852, 47139 (Decayed)

Orbit data source: Space-Track

STARLINK-1852, 47139 was a payload satellite owned by SpaceX/Seattle (US) in LEO that was launched on Wed, 25 Nov 2020 UTC via an FALCON 9 launch vehicle from the Air Force Eastern Test Range (AFETR). Payload-class satellites include a variety of spacecraft equipped with specific instruments for various scientific and technological missions. These include communications satellites like Starlink; space stations such as the ISS; scientific satellites like the Hubble; Earth observation satellites from companies like Planet Labs, Umbra, and HawkEye 360; GPS; miniature CubeSats for education and research; and military/defense satellites.

Not visible in the next 10 days
Identifier
47139, 2020-088T
Orbit
Decayed
Country
Flag of USUS
Related business
Manufacturer
SpaceX/Seattle
Mission
Decayed Commercial Communications
Bus & Motor
STARLINK, Unknown motor
Mass
260 kg wet, ~248 kg dry
Launch date (UTC)
2020-11-25 (6 years ago)
Launch vehicle
FALCON 9
Launch site
Air Force Eastern Test Range (AFETR)
Object type
Payload
Rocket body
Debris
Shape & HBR
Box + 1 Pan, 10.1 m
Radar Cross Section
13.562 m², Large (>1 m²)

Expand to show TLE details & history
Last TLE update: 1 year ago

TLE from 1 year ago
0 STARLINK-1852
1 47139U 20088T   25042.89041307  .10340872  12351-4  81321-3 0  9996
2 47139  53.0293 217.5255 0005281 274.3332 255.9024 16.39343415233762
Epoch: 2025-02-11T21:22Z
TLE epoch observation values (Epoch: 2025-02-11T21:22:11.689Z)
Latitude
7.80151°
Longitude
-71.09745°
Altitude
168.642 km
Speed
7.806 km/s
True Right ascension
02h 06m 33s
True Declination
7° 45' 04"
Sunlit
Object was in daylight at epoch
Visualization orbit readout
Latitude
Unknown
Longitude
Unknown
Altitude
Unknown
Speed
Unknown
Apparent Right ascension
Unknown
Apparent Declination
Unknown
Sunlit
N/A
Visualization observer readout
Local Sidereal Time
21:32:08
Azimuth
Unknown
Elevation
Unknown
Doppler factor
Unknown
Orbital elements
Apogee altitude
171.297 km
Perigee altitude
164.383 km
Semi-major axis
6,545.977 km
Eccentricity
0.00053
Inclination
53.0293°
RAAN
217.5255°
Arg. of periapsis
274.3332°
True anomaly
255.84372°
Mean anomaly
255.9024°
Eccentric anomaly
255.87306°
Mean motion
4.09809 °/min
Orbital period
87.85 mins
BSTAR
0.00081321
Loading maneuver chart data...
Computing Atmospheric mass density...

Documentation

Showing up to 5 results
|